Temp
77 77 76 76 76 76 76 76 76 77 76 77 77 77 77 78 79 79 79 80 79 79 78 78 78 78 80 78 78 78 78 77 77 77 77 77 77 78 81 79 79 77
76 77 78 77 76 77 76 77 77 77 76 76 77 77 78 78 80 80 79 79 80 79 78 79 78 78 77 77 77 77 77 78 77 82 78 79 77 77 79 79 79 78
76 76 76 76 77 76 77 77 77 76 77 78 78 78 79 81 80 79 79 80 80 80 78 78 78 78 78 77 76 77 77 76 76 77 77 78 77 77 77 79 79 79
76 77 77 77 77 77 77 76 76 77 78 78 78 80 81 83 81 79 79 81 79 79 79 79 79 79 78 77 77 77 76 76 77 77 78 77 77 78 77 78 79 80
77 77 77 78 77 77 77 76 77 77 78 78 79 79 80 78 79 79 78 79 79 79 78 79 79 79 78 77 77 77 77 76 77 76 76 76 76 78 79 79 77 78
78 78 78 78 77 77 77 77 78 78 78 79 79 80 80 79 79 79 79 80 80 80 79 79 79 80 80 78 77 77 78 78 77 76 76 75 77 77 81 80 78 77
78 78 78 79 79 78 78 78 78 79 79 80 79 79 80 80 79 79 79 80 81 80 80 79 79 79 79 78 78 77 77 77 76 76 76 76 76 77 78 78 78 77
79 79 79 79 79 79 78 78 78 79 79 79 80 80 80 81 80 81 79 80 81 80 79 80 79 78 80 79 78 77 78 81 78 75 76 76 75 76 76 79 78 76
80 79 79 79 80 80 80 81 80 80 80 80 81 81 81 81 81 81 80 79 80 79 79 79 78 79 79 79 78 78 78 80 80 77 77 77 76 76 77 77 77 76
80 80 80 80 80 81 81 82 82 82 82 82 82 82 81 81 81 81 80 79 80 79 78 79 79 79 79 79 79 78 78 78 78 78 78 78 78 78 78 77 77 76
81 81 81 81 81 82 82 83 83 83 83 83 83 82 82 81 80 81 79 79 81 80 79 78 79 79 79 80 79 79 79 79 79 77 77 78 78 78 80 78 77 77
76 76 80 82 82 83 83 84 84 84 84 84 84 83 83 83 82 81 81 79 80 80 80 79 79 79 79 79 80 80 79 79 79 78 78 78 78 79 79 79 79 78
72 72 71 77 83 84 84 84 84 85 85 84 84 84 83 83 83 81 80 80 80 80 81 80 79 79 78 79 80 80 80 79 80 79 79 79 79 80 81 80 80 80
74 74 74 75 80 82 82 84 85 85 85 85 84 84 84 84 83 82 81 81 81 81 80 81 80 80 78 78 79 80 80 79 79 79 79 79 80 80 81 81 79 79
73 73 73 75 75 75 75 75 76 78 80 82 82 83 85 83 84 83 81 81 81 81 80 81 81 81 81 79 79 79 80 79 79 79 79 79 79 79 78 77 76 77
74 74 73 73 73 74 73 73 74 74 74 75 77 80 80 80 80 81 82 81 80 80 79 82 82 82 81 82 81 81 78 81 79 79 76 75 75 74 74 76 76 77
74 73 73 72 72 72 72 72 72 72 72 72 73 73 74 77 79 79 79 80 81 80 79 79 79 77 70 66 69 74 80 77 78 75 73 74 74 75 74 75 75 75
73 73 72 71 71 71 71 71 71 71 72 72 72 72 74 75 75 76 77 79 81 80 79 78 75 69 64 66 66 68 75 77 76 75 73 73 74 74 74 75 75 76
73 73 72 71 71 71 71 71 70 70 71 72 73 73 73 72 73 73 75 75 79 78 78 78 73 63 64 66 66 66 70 77 74 74 72 73 74 75 74 74 75 75
71 70 70 70 70 71 71 70 70 70 70 71 73 73 73 72 72 72 73 73 75 76 75 73 70 63 62 63 63 65 69 75 76 74 74 74 75 75 75 75 75 75
71 71 71 71 71 71 71 71 70 70 71 72 72 72 72 72 72 73 73 74 75 74 73 71 67 60 60 62 61 63 66 75 75 75 74 75 76 75 75 75 75 75
70 70 71 71 71 71 71 71 70 70 71 72 72 71 71 71 72 72 73 73 73 73 71 66 63 57 58 59 60 62 70 75 73 73 73 75 74 74 74 74 74 74
69 69 69 69 69 70 69 69 70 70 71 72 71 71 71 71 71 71 71 71 72 70 68 65 64 59 56 57 58 58 69 73 74 73 74 75 74 74 74 74 74 74
68 69 69 69 69 69 69 70 70 70 70 72 71 71 71 71 70 70 70 70 71 69 68 66 64 61 55 55 56 57 64 74 74 74 74 74 73 73 72 73 75 79
68 68 68 68 68 68 69 69 69 70 71 70 70 71 71 70 70 69 69 69 69 68 70 65 64 62 56 54 55 56 63 71 74 73 73 72 72 70 70 70 73 77
69 69 68 68 68 69 69 69 70 69 69 70 70 70 70 69 69 68 67 66 65 65 64 64 62 61 59 53 53 55 58 69 74 73 72 71 71 70 69 69 68 68
MSLP
1018.48 1018.60 1018.84 1019.00 1019.08 1019.08 1019.24 1019.40 1019.44 1019.56 1019.56 1019.52 1019.68 1019.60 1019.60 1019.44 1019.36 1019.44 1019.52 1019.56 1019.60 1019.68 1019.68 1019.68 1019.72 1019.80 1019.76 1019.80 1019.84 1019.96 1020.04 1020.04 1020.04 1020.00 1020.12 1020.08 1020.16 1020.24 1020.36 1020.32 1020.28 1020.36
1018.48 1018.48 1018.56 1018.72 1018.88 1018.88 1018.96 1019.00 1019.20 1019.32 1019.40 1019.40 1019.36 1019.32 1019.28 1019.24 1019.24 1019.28 1019.44 1019.52 1019.52 1019.60 1019.52 1019.56 1019.60 1019.68 1019.80 1019.88 1019.92 1020.08 1020.12 1020.08 1020.20 1019.88 1020.12 1020.12 1020.16 1020.16 1020.24 1020.28 1020.32 1020.24
1018.44 1018.52 1018.60 1018.80 1018.88 1018.88 1018.88 1018.88 1018.96 1019.08 1019.16 1019.12 1019.04 1019.12 1019.12 1019.00 1019.16 1019.16 1019.24 1019.32 1019.48 1019.52 1019.52 1019.48 1019.56 1019.56 1019.68 1019.80 1019.88 1020.00 1020.12 1020.16 1020.24 1020.00 1020.00 1020.12 1020.08 1020.20 1020.20 1020.20 1020.20 1020.24
1018.32 1018.32 1018.48 1018.60 1018.64 1018.76 1018.72 1018.88 1018.88 1018.92 1018.92 1019.08 1019.04 1018.88 1018.88 1018.84 1018.84 1019.08 1019.16 1019.16 1019.36 1019.44 1019.44 1019.44 1019.52 1019.52 1019.56 1019.68 1019.80 1020.00 1020.04 1020.08 1020.00 1019.96 1020.12 1020.04 1020.04 1020.12 1020.20 1020.16 1020.20 1020.20
1018.20 1018.28 1018.32 1018.44 1018.48 1018.56 1018.68 1018.88 1018.92 1018.88 1018.92 1018.80 1018.76 1018.76 1018.80 1018.80 1018.88 1019.00 1019.08 1019.16 1019.20 1019.36 1019.40 1019.48 1019.44 1019.52 1019.52 1019.68 1019.80 1020.04 1020.04 1020.16 1020.04 1020.08 1020.28 1020.36 1020.12 1020.12 1020.08 1020.12 1020.32 1020.40
1017.96 1018.00 1018.12 1018.32 1018.40 1018.52 1018.72 1018.80 1018.76 1018.76 1018.80 1018.84 1018.76 1018.64 1018.64 1018.64 1018.76 1018.80 1018.96 1019.12 1019.20 1019.28 1019.44 1019.40 1019.48 1019.48 1019.48 1019.64 1019.76 1019.92 1020.00 1020.16 1020.12 1020.20 1020.40 1020.48 1020.32 1020.12 1020.12 1020.20 1020.36 1020.48
1017.88 1017.92 1018.04 1018.08 1018.28 1018.32 1018.48 1018.56 1018.56 1018.52 1018.56 1018.52 1018.56 1018.72 1018.56 1018.68 1018.72 1018.72 1018.76 1018.88 1019.04 1019.20 1019.32 1019.40 1019.48 1019.56 1019.48 1019.60 1019.80 1019.96 1019.96 1020.00 1020.04 1020.16 1020.40 1020.44 1020.36 1020.36 1020.20 1020.28 1020.36 1020.48
1017.60 1017.64 1017.76 1017.92 1018.12 1018.20 1018.36 1018.40 1018.40 1018.40 1018.32 1018.40 1018.64 1018.52 1018.44 1018.56 1018.60 1018.60 1018.64 1018.72 1018.92 1019.04 1019.12 1019.20 1019.32 1019.40 1019.44 1019.56 1019.88 1020.04 1020.00 1019.88 1020.08 1020.16 1020.32 1020.36 1020.36 1020.52 1020.36 1020.24 1020.32 1020.52
1017.32 1017.56 1017.68 1017.88 1018.08 1018.12 1018.24 1018.20 1018.20 1018.20 1018.12 1018.36 1018.44 1018.40 1018.28 1018.32 1018.48 1018.52 1018.60 1018.68 1018.80 1018.88 1019.00 1019.12 1019.24 1019.32 1019.32 1019.48 1019.72 1019.88 1020.04 1020.00 1019.92 1020.08 1020.20 1020.32 1020.44 1020.40 1020.32 1020.24 1020.40 1020.48
1017.24 1017.28 1017.56 1017.76 1018.00 1017.96 1018.08 1017.96 1017.92 1017.96 1017.92 1018.08 1018.08 1018.12 1018.28 1018.20 1018.20 1018.36 1018.48 1018.64 1018.76 1018.84 1018.92 1019.00 1019.12 1019.20 1019.28 1019.36 1019.52 1019.68 1019.84 1019.96 1019.92 1019.96 1020.00 1020.08 1020.20 1020.20 1020.16 1020.24 1020.32 1020.44
1017.08 1017.16 1017.44 1017.60 1017.68 1017.72 1017.76 1017.72 1017.68 1017.72 1017.72 1017.84 1017.88 1018.04 1018.00 1018.08 1018.20 1018.16 1018.40 1018.56 1018.72 1018.76 1018.84 1018.92 1018.96 1019.00 1019.20 1019.28 1019.32 1019.36 1019.52 1019.68 1019.76 1019.80 1019.88 1019.88 1019.92 1019.92 1019.88 1019.96 1020.08 1020.24
1017.48 1017.76 1017.72 1017.44 1017.44 1017.44 1017.44 1017.40 1017.40 1017.48 1017.56 1017.56 1017.56 1017.76 1017.76 1017.80 1018.00 1018.12 1018.20 1018.40 1018.40 1018.44 1018.52 1018.60 1018.64 1018.76 1018.92 1019.04 1019.12 1019.20 1019.32 1019.44 1019.52 1019.60 1019.68 1019.68 1019.68 1019.72 1019.72 1019.72 1019.84 1019.84
1017.16 1017.16 1017.96 1018.16 1017.28 1017.12 1017.04 1017.12 1017.20 1017.16 1017.28 1017.40 1017.28 1017.40 1017.56 1017.72 1017.76 1017.92 1017.92 1018.04 1018.12 1018.16 1018.28 1018.32 1018.44 1018.56 1018.72 1018.84 1018.92 1019.00 1019.16 1019.32 1019.44 1019.52 1019.56 1019.56 1019.52 1019.48 1019.44 1019.48 1019.52 1019.60
1017.20 1017.32 1017.24 1017.36 1017.08 1016.76 1016.80 1016.80 1016.84 1016.92 1016.92 1016.88 1016.96 1017.28 1017.36 1017.44 1017.56 1017.68 1017.64 1017.72 1017.84 1017.96 1017.96 1018.00 1018.20 1018.40 1018.52 1018.64 1018.76 1018.84 1019.00 1019.16 1019.28 1019.40 1019.48 1019.40 1019.36 1019.32 1019.24 1019.40 1019.52 1019.48
1016.96 1016.96 1016.88 1016.92 1017.00 1016.80 1016.92 1017.04 1016.96 1016.80 1016.72 1016.72 1016.88 1017.00 1017.00 1017.08 1017.16 1017.32 1017.64 1017.84 1017.76 1017.80 1017.88 1017.88 1018.08 1018.24 1018.28 1018.44 1018.68 1018.80 1018.80 1019.00 1019.04 1019.20 1019.28 1019.36 1019.36 1019.44 1019.60 1019.48 1019.48 1019.40
1016.72 1016.76 1016.92 1016.96 1017.16 1016.84 1016.92 1017.04 1017.08 1017.08 1016.96 1016.92 1016.84 1016.76 1016.80 1016.92 1017.04 1017.16 1017.40 1017.64 1017.84 1017.88 1017.88 1017.92 1018.00 1017.96 1018.04 1018.16 1018.24 1018.44 1018.60 1018.64 1018.76 1018.80 1019.48 1020.08 1020.20 1020.12 1019.52 1019.24 1019.12 1019.08
1016.76 1016.68 1016.80 1017.08 1017.12 1016.92 1016.88 1016.92 1017.04 1017.08 1017.08 1017.12 1017.12 1017.04 1017.00 1016.88 1016.92 1017.20 1017.32 1017.40 1017.56 1017.76 1017.92 1018.00 1017.96 1017.96 1018.08 1018.20 1018.28 1018.28 1018.32 1018.48 1018.72 1019.24 1019.52 1019.48 1019.72 1019.92 1019.84 1019.44 1019.16 1019.00
1016.72 1016.64 1016.80 1017.00 1016.96 1016.96 1016.96 1017.00 1017.04 1017.04 1017.08 1017.12 1017.20 1017.24 1017.08 1016.96 1017.08 1017.16 1017.16 1017.20 1017.36 1017.56 1017.80 1017.92 1018.04 1018.08 1018.00 1018.04 1018.16 1018.28 1018.40 1018.68 1018.92 1019.04 1019.28 1019.48 1019.40 1019.64 1019.52 1019.36 1019.28 1019.12
1017.20 1016.84 1016.92 1017.04 1016.96 1016.88 1016.84 1016.96 1017.12 1017.16 1017.16 1017.12 1017.20 1017.16 1017.20 1017.28 1017.20 1017.16 1017.16 1017.08 1017.20 1017.48 1017.68 1017.80 1018.08 1018.40 1018.24 1018.04 1018.08 1018.28 1018.52 1018.40 1018.36 1018.60 1018.96 1019.12 1019.08 1019.16 1019.24 1019.16 1019.04 1019.00
1017.88 1017.88 1017.92 1018.04 1017.72 1017.28 1017.04 1017.00 1017.00 1017.16 1017.16 1017.12 1017.16 1017.20 1017.28 1017.36 1017.40 1017.40 1017.36 1017.32 1017.24 1017.32 1017.56 1017.92 1018.28 1018.56 1018.64 1018.52 1018.24 1018.20 1018.20 1018.20 1018.20 1018.36 1018.52 1018.68 1018.84 1018.80 1018.88 1018.92 1018.92 1018.92
1017.32 1017.28 1017.44 1017.24 1017.08 1017.00 1017.00 1017.04 1016.96 1017.04 1017.16 1017.16 1017.16 1017.28 1017.36 1017.40 1017.40 1017.48 1017.48 1017.44 1017.44 1017.44 1017.72 1018.08 1018.44 1018.72 1018.72 1018.80 1018.60 1018.08 1017.88 1017.88 1018.08 1018.20 1018.32 1018.36 1018.36 1018.40 1018.56 1018.64 1018.68 1018.64
1017.12 1017.32 1017.32 1017.32 1017.40 1017.20 1017.16 1017.36 1017.32 1017.12 1017.08 1017.12 1017.20 1017.28 1017.32 1017.32 1017.36 1017.36 1017.52 1017.60 1017.64 1017.72 1017.92 1018.24 1018.52 1018.56 1018.68 1018.84 1018.72 1018.28 1017.80 1017.84 1018.00 1018.12 1018.16 1018.24 1018.32 1018.36 1018.44 1018.48 1018.56 1018.64
1017.40 1017.52 1017.64 1017.60 1017.40 1017.32 1017.48 1017.84 1017.96 1017.76 1017.32 1017.00 1017.28 1017.40 1017.48 1017.48 1017.60 1017.72 1017.80 1017.88 1018.00 1018.12 1018.28 1018.56 1018.64 1018.72 1018.68 1018.72 1018.68 1018.48 1018.12 1017.92 1018.00 1018.08 1018.12 1018.20 1018.28 1018.28 1018.32 1018.36 1018.48 1018.52
1017.44 1017.60 1017.76 1017.60 1017.36 1017.28 1017.32 1017.40 1017.52 1017.56 1017.44 1017.08 1017.24 1017.48 1017.68 1017.72 1017.84 1017.96 1017.84 1017.92 1018.24 1018.44 1018.56 1018.72 1018.88 1018.92 1018.72 1018.60 1018.52 1018.40 1018.24 1018.04 1017.96 1018.00 1018.16 1018.24 1018.40 1018.40 1018.32 1018.32 1018.40 1018.40
1017.32 1017.60 1018.16 1018.00 1017.84 1017.60 1017.52 1017.60 1017.68 1017.60 1017.40 1017.20 1017.20 1017.28 1017.52 1017.76 1018.04 1018.36 1018.56 1018.28 1018.36 1018.56 1018.64 1018.84 1019.00 1018.96 1018.84 1018.68 1018.52 1018.36 1018.20 1017.96 1017.88 1018.04 1018.28 1018.40 1018.48 1018.64 1018.52 1018.52 1018.52 1018.40
1017.08 1017.76 1018.52 1018.48 1018.08 1017.76 1017.72 1017.72 1017.60 1017.60 1017.56 1017.44 1017.40 1017.40 1017.72 1018.00 1018.24 1018.48 1018.64 1018.80 1018.88 1018.96 1019.08 1019.20 1019.32 1019.36 1019.16 1018.92 1018.64 1018.40 1018.16 1017.92 1017.76 1018.08 1018.36 1018.44 1018.52 1018.56 1018.72 1018.80 1018.92 1019.00
Wind_Speed
7 6 7 6 6 6 6 6 5 5 5 5 5 5 6 6 5 5 5 5 4 4 4 4 3 3 2 2 2 1 1 0 0 0 1 1 3 3 4 5 4 3
7 7 5 6 5 5 5 5 5 5 5 5 5 4 4 4 6 5 5 6 5 5 4 4 4 4 3 3 2 2 1 1 1 1 1 1 1 2 3 3 3 3
6 6 6 7 7 7 7 5 4 5 5 5 4 4 5 4 4 5 6 6 6 5 4 4 4 4 3 3 3 3 2 1 2 1 0 0 1 2 2 2 3 3
7 7 7 6 5 6 5 5 4 4 3 4 4 4 5 4 4 5 6 7 6 5 5 4 4 4 3 3 3 3 3 3 3 1 1 1 1 0 2 2 2 4
8 7 6 6 5 4 4 4 5 5 5 5 4 4 5 4 4 4 5 6 6 5 4 5 4 4 4 3 3 3 2 2 2 1 2 3 3 1 2 1 3 4
7 7 7 6 6 6 5 6 6 5 4 4 5 4 5 4 4 4 5 6 5 5 5 5 5 4 4 4 3 3 3 3 2 2 3 3 3 2 2 2 3 4
9 7 8 7 7 6 7 7 6 6 5 5 3 5 4 4 4 4 4 5 6 5 5 5 5 5 4 4 4 4 4 3 3 3 3 4 3 3 3 2 3 3
10 8 8 7 7 7 8 7 6 6 6 4 6 6 5 5 5 4 3 4 5 5 5 5 5 5 5 5 5 4 4 4 3 3 3 3 3 3 3 2 2 3
9 9 8 8 8 7 8 7 6 6 6 7 7 6 5 5 5 5 4 4 4 5 4 4 5 5 5 5 5 5 5 4 4 4 4 4 4 4 4 3 3 3
10 9 10 9 9 8 8 8 7 7 6 7 7 6 6 6 5 5 5 5 5 5 5 4 5 5 5 5 6 6 5 5 4 4 4 4 4 5 4 4 4 3
10 10 9 9 10 8 10 9 9 8 7 8 7 7 7 6 6 5 5 6 6 6 5 5 6 6 6 5 4 5 5 5 5 5 4 4 5 5 5 4 4 4
3 5 4 10 10 10 10 10 9 8 8 8 8 8 7 7 7 6 6 7 7 7 6 6 6 6 6 6 6 5 5 5 5 5 5 4 5 5 5 4 4 5
7 10 4 10 9 9 9 8 9 9 9 9 8 8 8 7 7 8 7 7 7 7 7 6 6 6 6 6 5 5 5 5 5 5 5 5 4 6 5 5 5 3
6 5 6 5 7 7 7 8 10 9 9 9 8 8 8 8 8 9 8 7 7 7 6 6 6 6 5 6 5 6 5 5 5 5 5 5 5 5 5 1 2 2
6 6 4 2 0 3 4 4 1 3 6 7 6 7 7 7 5 5 5 6 5 6 6 5 6 6 6 6 5 5 5 5 6 5 5 5 5 1 5 2 0 1
6 5 2 2 1 5 5 4 3 2 3 2 3 6 6 6 5 5 6 6 5 4 3 4 5 4 3 6 5 5 6 5 4 4 2 8 7 0 3 3 3 3
4 4 5 4 2 3 4 4 4 3 3 3 3 2 3 5 6 6 5 5 6 5 4 3 3 3 4 3 2 1 1 3 2 5 7 5 3 1 2 4 3 4
2 4 5 4 3 4 4 3 3 3 4 4 3 2 2 3 5 5 5 6 5 5 5 5 4 2 5 5 3 2 2 4 5 4 5 5 3 3 4 4 5 5
2 2 3 2 3 4 4 4 3 3 3 4 4 3 2 3 4 5 5 5 6 7 6 5 4 3 2 4 5 6 5 7 5 5 6 6 6 6 5 5 4 4
3 4 5 4 4 2 2 3 4 4 3 2 3 3 4 3 3 3 2 3 4 5 5 4 3 5 6 4 5 7 8 8 5 6 6 7 7 7 7 6 5 5
2 3 5 5 5 5 5 4 4 4 3 2 4 5 6 6 6 4 3 2 2 3 5 4 3 5 5 5 3 6 9 9 6 6 6 6 7 7 7 6 6 5
2 3 2 3 2 1 1 2 1 3 4 3 2 4 3 3 2 3 3 2 2 3 4 4 2 6 6 5 6 5 9 6 6 6 6 5 6 6 6 5 4 3
2 2 3 2 2 2 4 3 4 2 2 3 4 3 4 3 3 4 5 4 3 3 3 3 3 6 6 5 6 8 5 5 5 5 5 5 5 5 5 5 4 3
4 4 4 0 1 3 3 3 3 3 3 1 3 4 3 3 4 5 4 5 4 4 2 2 2 5 7 6 6 6 6 3 5 6 6 5 4 2 2 4 5 9
5 5 2 3 0 1 2 2 2 2 0 1 0 1 3 4 5 6 2 1 3 4 6 5 3 5 9 8 6 6 3 3 4 4 6 5 5 4 2 2 1 5
5 4 1 0 0 2 2 3 2 2 3 1 1 2 2 3 4 6 7 4 4 4 5 5 5 5 7 10 9 9 7 3 3 5 6 6 5 5 5 3 3 4
Wind_Direction
174 173 168 172 177 177 176 180 186 187 194 194 192 201 187 200 208 197 195 202 202 195 194 178 175 169 169 195 196 141 206 234 357 320 346 9 24 21 1 354 350 353
181 176 171 167 174 180 183 182 185 188 197 201 207 208 211 191 209 197 199 199 198 197 190 178 177 173 164 173 199 169 206 274 296 246 168 40 350 21 2 359 343 331
178 176 177 178 181 182 184 188 182 192 196 207 202 204 220 209 200 200 198 197 196 192 189 183 178 183 175 174 192 211 197 217 256 279 116 217 5 8 328 336 340 330
183 182 183 189 185 186 184 181 191 195 200 205 211 208 211 214 203 185 198 193 189 195 193 187 188 186 186 178 171 193 201 211 242 217 272 311 294 347 303 319 325 324
181 184 187 187 190 190 184 191 199 201 206 207 214 212 211 208 204 182 186 187 187 193 193 195 194 192 192 186 183 194 207 216 251 188 204 254 288 299 284 316 313 315
186 187 185 186 187 186 192 199 206 208 211 211 217 213 209 199 199 183 178 179 187 192 195 195 190 197 191 196 192 202 214 220 237 193 206 235 264 280 282 306 324 315
189 188 192 188 188 190 194 200 207 207 207 214 213 221 208 200 203 196 181 178 182 189 191 190 192 193 196 188 194 208 220 211 235 200 215 236 235 274 292 304 315 308
190 189 192 190 194 193 199 201 205 205 203 206 211 219 206 202 206 210 200 191 187 190 183 187 194 196 194 180 192 201 213 216 209 196 203 224 220 242 265 269 294 292
187 188 189 194 198 198 207 208 206 210 202 203 207 208 206 201 202 208 204 198 197 198 197 189 194 202 196 188 195 196 205 215 204 196 203 221 228 240 248 262 288 286
191 189 189 193 199 202 209 212 211 209 204 204 205 199 201 210 202 201 197 198 201 203 201 202 201 203 196 195 196 196 201 209 212 207 213 220 225 232 238 234 241 261
194 191 193 195 197 202 209 210 210 208 202 205 198 200 200 199 209 201 195 197 205 206 203 200 198 198 196 200 201 197 198 203 208 209 214 219 224 228 227 223 232 232
52 360 255 201 200 203 207 209 210 206 203 207 202 203 200 197 196 199 196 202 206 203 198 195 190 190 194 200 202 198 200 205 207 211 217 218 223 226 229 226 230 233
153 155 208 277 213 205 206 206 210 210 206 206 206 206 202 201 196 193 195 193 201 199 198 195 195 194 194 199 204 203 205 208 217 219 219 220 221 224 228 227 234 252
157 159 172 240 252 211 201 205 208 210 209 208 202 203 205 205 200 199 199 195 197 197 199 193 195 198 198 200 201 207 208 220 222 225 224 222 225 225 231 218 88 103
174 179 187 150 338 106 91 72 75 207 207 206 199 204 206 205 206 200 195 206 204 198 195 190 190 197 195 194 200 210 208 211 218 223 223 222 233 284 64 101 267 256
176 163 154 102 149 109 105 101 89 64 63 82 179 184 177 173 168 169 177 186 189 199 206 206 197 191 171 190 191 197 199 204 191 203 64 31 10 72 202 205 188 213
163 148 132 132 145 114 112 114 113 105 85 78 71 81 138 161 159 158 161 169 174 171 169 162 137 124 113 89 53 13 191 187 197 83 102 138 172 345 273 237 217 223
148 126 123 139 145 132 129 129 123 112 114 112 99 96 133 141 145 158 164 170 170 170 167 167 159 139 128 113 88 51 18 62 73 126 134 150 154 159 232 252 242 229
320 94 107 122 136 138 131 126 114 107 123 125 129 145 129 152 171 159 168 172 167 175 177 160 140 23 41 113 99 77 89 140 162 168 152 163 177 178 204 225 227 199
359 32 39 4 343 25 79 106 121 131 147 141 127 129 137 161 191 212 204 190 176 170 150 110 95 32 356 356 93 115 147 170 187 187 180 171 170 182 204 216 216 193
165 175 176 180 192 178 159 148 136 142 160 158 133 144 147 161 176 185 202 214 185 133 125 105 78 21 3 338 305 160 173 180 184 188 183 175 171 178 196 205 212 198
140 161 155 142 174 295 46 51 85 148 170 185 150 125 129 125 120 124 123 106 89 103 111 104 62 38 14 347 311 279 184 165 172 179 183 170 159 166 181 203 224 212
38 93 101 78 84 97 94 98 302 297 241 185 160 166 149 148 126 72 52 51 64 79 92 90 72 23 19 4 318 313 254 171 167 171 183 175 165 167 168 174 186 183
40 44 64 25 113 110 107 126 167 211 242 209 157 150 152 135 106 78 46 41 34 54 74 99 78 33 23 12 347 328 302 238 182 179 182 172 150 128 147 165 183 179
66 55 96 251 278 114 122 143 169 173 49 28 43 154 143 116 103 105 114 289 38 56 61 62 39 22 18 9 4 352 326 272 217 180 169 167 149 132 77 97 172 171
60 67 10 231 172 74 65 59 54 47 17 20 40 56 96 112 120 119 135 118 74 72 58 56 40 12 11 11 11 3 358 311 224 171 176 164 158 155 140 101 86 75